Change the Weather History Date:

Thursday, June 27, 2013

  Actual Average Record
Temperature  
Mean Temperature 85 °F 74 °F  
Max Temperature 101 °F 88 °F 102 °F (1958)
Min Temperature 68 °F 60 °F 43 °F (1942)
Degree Days  
Heating Degree Days 0 0  
Month to date heating degree days 4 44  
Since 1 June heating degree days 4 44  
Since 1 July heating degree days 5460 5605  
Cooling Degree Days 20 9  
Month to date cooling degree days 250 157  
Year to date cooling degree days 320 207  
Since 1 June cooling degree days 250 157  
Growing Degree Days 35 (Base 50)    
Moisture  
Dew Point 49 °F    
Average Humidity 34    
Maximum Humidity 51    
Minimum Humidity 16    
Precipitation  
Precipitation 0.00 in 0.01 in 0.47 in (1913)
Month to date precipitation T 0.93  
Year to date precipitation 6.12 9.16  
Snow  
Snow 0.00 in 0.00 in - ()
Month to date snowfall 0.0 0.0  
Since 1 July snowfall 69.9 56.2  
Snow Depth 0.00 in    
Sea Level Pressure  
Sea Level Pressure 29.96 in    
Wind  
Wind Speed 4 mph (WNW)    
Max Wind Speed 13 mph    
Max Gust Speed 20 mph    
Visibility 10 miles    
Events      
T = Trace of Precipitation, MM = Missing Value Source: NWS Daily Summary

Daily Weather History Graph

Daily Weather History Graph

Search for Another Location

Airport or City:

Trip Planner

Search our weather history database for the weather conditions in past years. The results will help you decide how hot, cold, wet, or windy it might be!

Date:

Astronomy

Jun. 27, 2013 Rise Set
Actual Time 5:58 AM MDT 9:03 PM MDT
Civil Twilight 5:25 AM MDT 9:36 PM MDT
Nautical Twilight 4:42 AM MDT 10:19 PM MDT
Astronomical Twilight 3:52 AM MDT 11:09 PM MDT
Moon No Moon Rise 11:05 AM MDT (6/27)
Length of Visible Light 16h 11m
Length of Day
15h 04m
Waning Gibbous, 76% of the Moon is Illuminated
Jun 27
Waning Gibbous
Jun 29
Last Quarter
Jul 8
New
Jul 15
First Quarter
Jul 22
Full

Hourly Weather History & Observations

Time (MDT) Temp. Heat Index Dew Point Humidity Pressure Visibility Wind Dir Wind Speed Gust Speed Precip Events Conditions
12:53 AM 75.9 °F - 48.0 °F 37% 29.90 in 10.0 mi SSE 5.8 mph - N/A   Clear
1:53 AM 75.9 °F - 48.0 °F 37% 29.90 in 10.0 mi South 6.9 mph - N/A   Clear
2:53 AM 73.0 °F - 50.0 °F 44% 29.91 in 10.0 mi SE 6.9 mph - N/A   Clear
3:53 AM 71.1 °F - 52.0 °F 51% 29.94 in 10.0 mi Calm Calm - N/A   Clear
4:53 AM 71.1 °F - 51.1 °F 49% 29.94 in 10.0 mi Calm Calm - N/A   Clear
5:53 AM 70.0 °F - 51.1 °F 51% 29.95 in 10.0 mi SSE 8.1 mph - N/A   Partly Cloudy
6:53 AM 72.0 °F - 50.0 °F 46% 29.97 in 10.0 mi SE 6.9 mph - N/A   Clear
7:53 AM 78.1 °F - 50.0 °F 37% 29.99 in 10.0 mi SSE 4.6 mph - N/A   Clear
8:53 AM 82.9 °F - 46.0 °F 27% 30.00 in 10.0 mi Calm Calm - N/A   Clear
9:53 AM 87.1 °F - 48.0 °F 26% 30.01 in 10.0 mi Calm Calm - N/A   Clear
10:53 AM 91.0 °F - 46.9 °F 22% 30.01 in 10.0 mi Variable 3.5 mph - N/A   Partly Cloudy
11:53 AM 93.9 °F - 46.9 °F 20% 30.01 in 10.0 mi WNW 5.8 mph - N/A   Partly Cloudy
12:53 PM 96.1 °F - 48.0 °F 19% 30.01 in 10.0 mi NW 5.8 mph - N/A   Partly Cloudy
1:53 PM 98.1 °F - 48.9 °F 19% 29.99 in 10.0 mi NW 11.5 mph - N/A   Partly Cloudy
2:53 PM 99.0 °F - 46.9 °F 17% 29.98 in 10.0 mi North 8.1 mph - N/A   Partly Cloudy
3:53 PM 99.0 °F - 46.0 °F 16% 29.97 in 10.0 mi NNW 10.4 mph 16.1 mph N/A   Partly Cloudy
4:53 PM 100.9 °F - 46.9 °F 16% 29.95 in 10.0 mi NW 10.4 mph - N/A   Partly Cloudy
5:53 PM 100.0 °F - 46.0 °F 16% 29.95 in 10.0 mi NW 9.2 mph - N/A   Partly Cloudy
6:53 PM 100.0 °F - 44.1 °F 15% 29.93 in 10.0 mi North 9.2 mph - N/A   Partly Cloudy
7:53 PM 97.0 °F - 48.9 °F 19% 29.92 in 10.0 mi North 6.9 mph - N/A   Partly Cloudy
8:53 PM 91.9 °F 89.5 °F 53.1 °F 27% 29.93 in 10.0 mi North 6.9 mph - N/A   Partly Cloudy
9:53 PM 87.1 °F - 50.0 °F 28% 29.94 in 10.0 mi SE 5.8 mph - N/A   Partly Cloudy
10:53 PM 84.9 °F - 48.0 °F 28% 29.95 in 10.0 mi South 6.9 mph - N/A   Partly Cloudy
11:53 PM 82.9 °F - 50.0 °F 32% 29.94 in 10.0 mi SSW 4.6 mph - N/A   Partly Cloudy